Location: L�Ave Maria
(50.7161°N, 1.5911°E)
Time: 00:35:35
(UTC+00:00)

RESURS DK-1 - Pass Details

Date: 10 July 2020
Orbit: 556 x 562 km, 69.9° (Epoch: 03 August)

Event Time Altitude Azimuth Distance (km) Brightness Sun altitude
Rises 22:23:15 0° 333° (NNW) 2,756 7.9 -14.2°
Reaches altitude 10° 22:25:39 10° 343° (NNW) 1,857 6.4 -14.3°
Maximum altitude 22:29:24 32° 48° (NE) 970 3.7 -14.6°
Enters shadow 22:32:33 13° 109° (ESE) 1,644 4.4 -14.7°
